Regional Weather Roundup
Issued by NWS

Home | Current Version | Previous Version | Graphics & Text | Print | Product List | Glossary On
Versions: 1 2 3 4 5 6 7 8 9 10 11 12 13 14 15 16 17 18 19 20 21 22 23 24 25 26 27 28 29 30 31 32 33 34 35 36 37 38 39 40 41 42 43 44 45 46 47 48 49 50
000
ASUS43 KMKX 250621
RWRWI

WISCONSIN REGIONAL WEATHER ROUNDUP
NATIONAL WEATHER SERVICE MILWAUKEE/SULLIVAN WI
100 AM CDT TUE APR 25 2017

NOTE: "FAIR" INDICATES FEW OR NO CLOUDS BELOW 12,000 FEET WITH NO
SIGNIFICANT WEATHER AND/OR OBSTRUCTIONS TO VISIBILITY.

WIZ001-002-006>008-014>016-023>028-250700-
NORTHWEST WISCONSIN

CITY           SKY/WX    TMP DP  RH WIND       PRES   REMARKS
SUPERIOR ARPT  CLOUDY    37  35  90 NE10G18   29.66R WCI  30
6HR MIN TEMP:  36; 6HR MAX TEMP:  37;

ASHLAND        CLOUDY    39  36  89 E3        29.64F
6HR MIN TEMP:  38; 6HR MAX TEMP:  40;

HAYWARD        CLOUDY    63  30  28 S16G24    29.60F
6HR MIN TEMP:  62; 6HR MAX TEMP:  64;

SIREN          CLOUDY    57  33  40 NW6G18    29.59R
6HR MIN TEMP:  57; 6HR MAX TEMP:  66;

CUMBERLAND     CLOUDY    57  32  38 SE10      29.58S
RICE LAKE      CLOUDY    63  31  30 SE10      29.61R
6HR MIN TEMP:  60; 6HR MAX TEMP:  65;

CHETEK         CLOUDY    61  35  37 SE9       29.61F
6HR MIN TEMP:  61; 6HR MAX TEMP:  65;

LADYSMITH      CLOUDY    60  33  35 E6        29.67F
6HR MIN TEMP:  60; 6HR MAX TEMP:  65;

EAU CLAIRE     CLOUDY    61  32  33 E5        29.61S
6HR MIN TEMP:  58; 6HR MAX TEMP:  67;

MENOMONIE      CLOUDY    61  33  35 E9        29.60S
6HR MIN TEMP:  59; 6HR MAX TEMP:  66;

NEW RICHMOND   CLOUDY    62  31  30 W20G32    29.57F
6HR MIN TEMP:  61; 6HR MAX TEMP:  65;

OSCEOLA        LGT RAIN  56  45  65 SW3       29.62R
6HR MIN TEMP:  56; 6HR MAX TEMP:  66;

$$

WIZ003>005-009-010-017-018-250700-
NORTH CENTRAL WISCONSIN

CITY           SKY/WX    TMP DP  RH WIND       PRES   REMARKS
MANITOWISH WTR CLOUDY    53  34  47 SE7       29.70R
6HR MIN TEMP:  53; 6HR MAX TEMP:  59;

ARBOR VITAE    CLOUDY    54  35  47 SE8       29.70F
6HR MIN TEMP:  54; 6HR MAX TEMP:  62;

WOODRUFF       CLOUDY    54  35  47 SE8       29.70F
6HR MIN TEMP:  54; 6HR MAX TEMP:  62;

RHINELANDER    CLOUDY    52  34  50 E8        29.72F
6HR MIN TEMP:  51; 6HR MAX TEMP:  62;

EAGLE RIVER    CLOUDY    49  32  51 SE8       29.72F
6HR MIN TEMP:  49; 6HR MAX TEMP:  59;

LAND O LAKES   CLOUDY    49  33  53 SE8       29.75F
6HR MIN TEMP:  49; 6HR MAX TEMP:  60;

PHILLIPS       CLOUDY    54  37  51 E5        29.67S
6HR MIN TEMP:  55; 6HR MAX TEMP:  63;

TOMAHAWK       CLOUDY    54  30  40 CALM      29.70F
6HR MIN TEMP:  54; 6HR MAX TEMP:  61;

MEDFORD        CLOUDY    55  33  42 SE7       29.67F
6HR MIN TEMP:  55; 6HR MAX TEMP:  61;

MERRILL        CLOUDY    56  32  40 SE8       29.71S
6HR MIN TEMP:  56; 6HR MAX TEMP:  63;

$$

WIZ029-030-035-036-043>047-250700-
CENTRAL WISCONSIN

CITY           SKY/WX    TMP DP  RH WIND       PRES   REMARKS
WAUSAU         CLOUDY    58  31  35 SE10      29.69S
6HR MIN TEMP:  57; 6HR MAX TEMP:  65;

MOSINEE        CLOUDY    55  32  41 SE8       29.71S
MARSHFIELD     CLOUDY    58  34  40 S9        29.68S
6HR MIN TEMP:  57; 6HR MAX TEMP:  65;

STEVENS POINT  CLOUDY    60  32  35 SE7       29.71S
6HR MIN TEMP:  56; 6HR MAX TEMP:  65;

WAUPACA        CLOUDY    60  30  31 SE9       29.74F
6HR MIN TEMP:  59; 6HR MAX TEMP:  65;

WAUTOMA        CLOUDY    61  30  31 SE7       29.73F
6HR MIN TEMP:  61; 6HR MAX TEMP:  68;

WISC RAPIDS    NOT AVBL
CAMP DOUGLAS   CLOUDY    59  35  40 SE8       29.68S
6HR MIN TEMP:  59; 6HR MAX TEMP:  67;

$$

WIZ011>013-019>022-031-037>040-048>050-250700-
NORTHEAST WISCONSIN

CITY           SKY/WX    TMP DP  RH WIND       PRES   REMARKS
ANTIGO         CLOUDY    49  35  60 SE15G24   29.74S
6HR MIN TEMP:  49; 6HR MAX TEMP:  58;

SHAWANO        CLOUDY    49  40  72 E15       29.79R
OCONTO         CLOUDY    43  37  77 E5        29.78F
6HR MIN TEMP:  43; 6HR MAX TEMP:  49;

STURGEON BAY   MOCLDY    48  36  63 SE8       29.79F
6HR MIN TEMP:  44; 6HR MAX TEMP:  48;

GREEN BAY      CLOUDY    50  38  63 CALM      29.79R
6HR MIN TEMP:  48; 6HR MAX TEMP:  62;

MANITOWOC      CLOUDY    43  39  86 E12       29.77F
6HR MIN TEMP:  41; 6HR MAX TEMP:  57;

APPLETON       CLOUDY    57  28  33 E6        29.76S
CLINTONVILLE   DRIZZLE   55  32  41 SE10      29.76F
OSHKOSH        CLOUDY    57  33  40 NE8       29.73R
6HR MIN TEMP:  55; 6HR MAX TEMP:  61;

$$

WIZ032>034-041-042-053>061-250700-
SOUTHWEST WISCONSIN

CITY           SKY/WX    TMP DP  RH WIND       PRES   REMARKS
LA CROSSE      CLOUDY    66  31  27 SE12      29.61F
6HR MIN TEMP:  65; 6HR MAX TEMP:  70;

SPARTA         CLOUDY    62  32  33 SE8       29.66F
6HR MIN TEMP:  60; 6HR MAX TEMP:  68;

VIROQUA        CLOUDY    59  29  32 SE14      29.66S
6HR MIN TEMP:  58; 6HR MAX TEMP:  67;

BOSCOBEL       CLEAR     62  31  31 VRB6      29.66F
6HR MIN TEMP:  62; 6HR MAX TEMP:  73;

PRAIRIE DU CHI CLEAR     58  32  37 E7        29.63F
6HR MIN TEMP:  57; 6HR MAX TEMP:  71;

PLATTEVILLE    CLEAR     55  33  43 SE8       29.69S
6HR MIN TEMP:  55; 6HR MAX TEMP:  69;

$$

WIZ056-057-062-063-064-067-068-250700-
SOUTH CENTRAL WISCONSIN

CITY           SKY/WX    TMP DP  RH WIND       PRES   REMARKS
REEDSBURG      CLOUDY    59  32  35 CALM      29.70S
6HR MIN TEMP:  59; 6HR MAX TEMP:  68;

BARABOO/DELLS  CLOUDY    59  30  33 SE6       29.71S
6HR MIN TEMP:  59; 6HR MAX TEMP:  67;

LONE ROCK      CLEAR     57  34  41 E3        29.69S
6HR MIN TEMP:  56; 6HR MAX TEMP:  70;

MINERAL POINT  CLEAR     55  32  41 SE7       29.69S
MADISON        MOCLDY    60  32  34 SE10      29.71S
6HR MIN TEMP:  59; 6HR MAX TEMP:  69;

MIDDLETON      MOCLDY    62  32  32 SE9       29.71S
6HR MIN TEMP:  62; 6HR MAX TEMP:  71;

WATERTOWN      CLOUDY    57  34  41 SE5       29.74S
6HR MIN TEMP:  56; 6HR MAX TEMP:  64;

MONROE         CLOUDY    57  32  38 SE9       29.71S
JANESVILLE     CLOUDY    57  34  41 SE8       29.73R
$$

WIZ051-052-058>065-066-070>072-250700-
SOUTHEAST WISCONSIN

CITY           SKY/WX    TMP DP  RH WIND       PRES   REMARKS
MILWAUKEE      CLOUDY    48  37  65 CALM      29.77F
6HR MIN TEMP:  46; 6HR MAX TEMP:  57;

WAUKESHA       CLOUDY    52  32  46 SE14      29.75F
MILWAUKEE/TIMM MOCLDY    48  32  53 NE3       29.77F
RACINE         CLEAR     55  35  47 SE8       29.78F
6HR MIN TEMP:  49; 6HR MAX TEMP:  56;

KENOSHA        CLEAR     55  35  47 SE7       29.76F
6HR MIN TEMP:  43; 6HR MAX TEMP:  57;

FOND DU LAC    CLOUDY    60  29  30 SE8       29.74R
6HR MIN TEMP:  54; 6HR MAX TEMP:  62;

SHEBOYGAN      CLOUDY    45  39  79 E8        29.77F
6HR MIN TEMP:  41; 6HR MAX TEMP:  58;

WEST BEND      CLOUDY    52  32  46 SE10      29.75F
JUNEAU         CLOUDY    57  33  41 SE14      29.74F
6HR MIN TEMP:  55; 6HR MAX TEMP:  62;

$$

LSZ147-162-250700-
LAKE SUPERIOR

STATION/POSITION TIME  TEMP    WIND        PRES    WAVE
                       AIR SEA DIR/SP/G            HT/PER
                 (UTC) (F)     (DEG/KT/KT) (MB)    (FT/S)
DEVILS ISLAND    0600   38      50/ 22/ 26 1004.2R
PORT WING        0540   38      40/ 14/ 18 1003.7F
SAXON HARBOR     0530   38     350/  2/  6 1003.4F
$$

LMZ867-665-643>646-250700-
LAKE MICHIGAN

STATION/POSITION TIME  TEMP    WIND        PRES    WAVE
                       AIR SEA DIR/SP/G            HT/PER
                 (UTC) (F)     (DEG/KT/KT) (MB)    (FT/S)
CHAMBERS ISLAND  0540   46      CALM  /  4 1008.8F
N MID LAKE BUOY  0550   43 37  120/ 14/ 14 1010.8F   2/ 4
NORTHPORT PIER   0540   44     200/  2/  4 1009.8R
SISTER BAY       0521



USA.gov is the U.S. government's official web portal to all federal, state and local government web resources and services.